Location: DARK SKY Beskydy - Park tmavé oblohy, www.darkskybeskydy.cz
(49.4926°N, 18.5016°E)
Time: 03:32:01
(UTC+02:00)

A-11 Canister half - Pass Details

Date: 25 February 2024
Orbit: 1513 x 1686 km, 47.2° (Epoch: 24 April)

Event Time Altitude Azimuth Distance (km) Brightness Sun altitude
Rises 07:39:28 0° 288° (WNW) 4,892 11.0 8.6°
Reaches altitude 10° 07:42:51 10° 282° (WNW) 3,881 10.5 9.1°
Maximum altitude 07:51:52 42° 217° (SW) 2,147 9.9 10.4°
Drops below altitude 10° 08:00:34 10° 150° (SSE) 3,742 12.3 11.6°
Sets 08:03:46 0° 144° (SE) 4,702 12.9 12.1°
